Time,TemperatureF,DewpointF,PressureIn,WindDirection,WindDirectionDegrees,WindSpeedMPH,WindSpeedGustMPH,Humidity,HourlyPrecipIn,Conditions,Clouds,dailyrainin,SolarRadiationWatts/m^2,SoftwareType,DateUTC
2013-06-16 00:00:00,73.0,69.0,-100.00,SSE,159,1.0,-999.0,86,0.00,,,0.02,0.000000,,2013-06-16 05:00:00,
2013-06-16 00:22:00,73.0,69.0,-100.00,SSE,159,1.0,-999.0,86,0.00,,,0.02,0.000000,,2013-06-16 05:22:00,
2013-06-16 00:34:00,73.0,69.0,-100.00,SSE,159,1.0,-999.0,86,0.00,,,0.02,0.000000,,2013-06-16 05:34:00,
2013-06-16 00:43:00,73.0,69.0,-100.00,SSE,159,1.0,-999.0,86,0.00,,,0.02,0.000000,,2013-06-16 05:43:00,
2013-06-16 00:52:00,73.0,69.0,-100.00,SSE,159,1.0,-999.0,86,0.00,,,0.02,0.000000,,2013-06-16 05:52:00,
2013-06-16 01:00:00,72.0,70.0,-100.00,SSE,155,1.0,-999.0,92,0.00,,,0.02,0.000000,,2013-06-16 06:00:00,
2013-06-16 01:23:00,72.0,70.0,-100.00,SSE,155,1.0,-999.0,92,0.00,,,0.02,0.000000,,2013-06-16 06:23:00,
2013-06-16 01:33:00,72.0,70.0,-100.00,SSE,155,1.0,-999.0,92,0.00,,,0.02,0.000000,,2013-06-16 06:33:00,
2013-06-16 01:43:00,72.0,70.0,-100.00,SSE,155,1.0,-999.0,92,0.00,,,0.02,0.000000,,2013-06-16 06:43:00,
2013-06-16 01:52:00,72.0,70.0,-100.00,SSE,155,1.0,-999.0,92,0.00,,,0.02,0.000000,,2013-06-16 06:52:00,
2013-06-16 02:00:00,72.0,71.0,-100.00,SSE,162,2.0,-999.0,97,0.00,,,0.02,0.000000,,2013-06-16 07:00:00,
2013-06-16 02:22:00,72.0,71.0,-100.00,SSE,162,2.0,-999.0,97,0.00,,,0.02,0.000000,,2013-06-16 07:22:00,
2013-06-16 02:32:00,72.0,71.0,-100.00,SSE,162,2.0,-999.0,97,0.00,,,0.02,0.000000,,2013-06-16 07:32:00,
2013-06-16 02:43:00,72.0,71.0,-100.00,SSE,162,2.0,-999.0,97,0.00,,,0.02,0.000000,,2013-06-16 07:43:00,
2013-06-16 02:53:00,72.0,71.0,-100.00,SSE,162,2.0,-999.0,97,0.00,,,0.02,0.000000,,2013-06-16 07:53:00,
2013-06-16 03:00:00,72.0,72.0,-100.00,SSE,155,1.0,-999.0,98,0.00,,,0.02,0.000000,,2013-06-16 08:00:00,
2013-06-16 03:22:00,72.0,72.0,-100.00,SSE,155,1.0,-999.0,98,0.00,,,0.02,0.000000,,2013-06-16 08:22:00,
2013-06-16 03:33:00,72.0,72.0,-100.00,SSE,155,1.0,-999.0,98,0.00,,,0.02,0.000000,,2013-06-16 08:33:00,
2013-06-16 03:43:00,72.0,72.0,-100.00,SSE,155,1.0,-999.0,98,0.00,,,0.02,0.000000,,2013-06-16 08:43:00,
2013-06-16 03:54:00,72.0,72.0,-100.00,SSE,155,1.0,-999.0,98,0.00,,,0.02,0.000000,,2013-06-16 08:54:00,
2013-06-16 04:00:00,72.0,72.0,-100.00,SSE,148,0.0,-999.0,99,0.00,,,0.02,0.000000,,2013-06-16 09:00:00,
2013-06-16 04:22:00,72.0,72.0,-100.00,SSE,148,0.0,-999.0,99,0.00,,,0.02,0.000000,,2013-06-16 09:22:00,
2013-06-16 04:33:00,72.0,72.0,-100.00,SSE,148,0.0,-999.0,99,0.00,,,0.02,0.000000,,2013-06-16 09:33:00,
2013-06-16 04:43:00,72.0,72.0,-100.00,SSE,148,0.0,-999.0,99,0.00,,,0.02,0.000000,,2013-06-16 09:43:00,
2013-06-16 04:52:00,72.0,72.0,-100.00,SSE,148,0.0,-999.0,99,0.00,,,0.02,0.000000,,2013-06-16 09:52:00,
2013-06-16 05:00:00,72.0,72.0,-100.00,South,172,0.0,-999.0,99,0.00,,,0.02,0.000000,,2013-06-16 10:00:00,
2013-06-16 05:22:00,72.0,72.0,-100.00,South,172,0.0,-999.0,99,0.00,,,0.02,0.000000,,2013-06-16 10:22:00,
2013-06-16 05:33:00,72.0,72.0,-100.00,South,172,0.0,-999.0,99,0.00,,,0.02,0.000000,,2013-06-16 10:33:00,
2013-06-16 05:43:00,72.0,72.0,-100.00,South,172,0.0,-999.0,99,0.00,,,0.02,0.000000,,2013-06-16 10:43:00,
2013-06-16 05:54:00,72.0,72.0,-100.00,South,172,0.0,-999.0,99,0.00,,,0.02,0.000000,,2013-06-16 10:54:00,
2013-06-16 06:00:00,72.0,72.0,-100.00,SE,138,0.0,-999.0,99,0.00,,,0.02,0.000000,,2013-06-16 11:00:00,
2013-06-16 06:22:00,72.0,72.0,-100.00,SE,138,0.0,-999.0,99,0.00,,,0.02,0.000000,,2013-06-16 11:22:00,
2013-06-16 06:34:00,72.0,72.0,-100.00,SE,138,0.0,-999.0,99,0.00,,,0.02,0.000000,,2013-06-16 11:34:00,
2013-06-16 06:43:00,72.0,72.0,-100.00,SE,138,0.0,-999.0,99,0.00,,,0.02,0.000000,,2013-06-16 11:43:00,
2013-06-16 06:53:00,72.0,72.0,-100.00,SE,138,0.0,-999.0,99,0.00,,,0.02,0.000000,,2013-06-16 11:53:00,
2013-06-16 07:00:00,71.0,71.0,-100.00,East,95,0.0,-999.0,97,0.00,,,0.02,5.000000,,2013-06-16 12:00:00,
2013-06-16 07:22:00,71.0,71.0,-100.00,East,95,0.0,-999.0,97,0.00,,,0.02,5.000000,,2013-06-16 12:22:00,
2013-06-16 07:32:00,71.0,71.0,-100.00,East,95,0.0,-999.0,97,0.00,,,0.02,5.000000,,2013-06-16 12:32:00,
2013-06-16 07:43:00,71.0,71.0,-100.00,East,95,0.0,-999.0,97,0.00,,,0.02,5.000000,,2013-06-16 12:43:00,
2013-06-16 07:53:00,71.0,71.0,-100.00,East,95,0.0,-999.0,97,0.00,,,0.02,5.000000,,2013-06-16 12:53:00,
2013-06-16 08:00:00,73.0,68.0,-100.00,South,175,1.0,-999.0,85,0.00,,,0.02,111.000000,,2013-06-16 13:00:00,
2013-06-16 08:22:00,73.0,68.0,-100.00,South,175,1.0,-999.0,85,0.00,,,0.02,111.000000,,2013-06-16 13:22:00,
2013-06-16 08:34:00,73.0,68.0,-100.00,South,175,1.0,-999.0,85,0.00,,,0.02,111.000000,,2013-06-16 13:34:00,
2013-06-16 08:43:00,73.0,68.0,-100.00,South,175,1.0,-999.0,85,0.00,,,0.02,111.000000,,2013-06-16 13:43:00,
2013-06-16 08:53:00,73.0,68.0,-100.00,South,175,1.0,-999.0,85,0.00,,,0.02,111.000000,,2013-06-16 13:53:00,
2013-06-16 09:00:00,75.0,67.0,-100.00,WNW,295,4.0,-999.0,77,0.00,,,0.02,174.000000,,2013-06-16 14:00:00,
2013-06-16 09:22:00,75.0,67.0,-100.00,WNW,295,4.0,-999.0,77,0.00,,,0.02,174.000000,,2013-06-16 14:22:00,
2013-06-16 09:34:00,75.0,67.0,-100.00,WNW,295,4.0,-999.0,77,0.00,,,0.02,174.000000,,2013-06-16 14:34:00,
2013-06-16 09:44:00,75.0,67.0,-100.00,WNW,295,4.0,-999.0,77,0.00,,,0.02,174.000000,,2013-06-16 14:44:00,
2013-06-16 09:52:00,75.0,67.0,-100.00,WNW,295,4.0,-999.0,77,0.00,,,0.02,174.000000,,2013-06-16 14:52:00,
2013-06-16 10:00:00,78.0,66.0,-100.00,SSW,195,4.0,-999.0,66,0.00,,,0.02,501.000000,,2013-06-16 15:00:00,
2013-06-16 10:23:00,78.0,66.0,-100.00,SSW,195,4.0,-999.0,66,0.00,,,0.02,501.000000,,2013-06-16 15:23:00,
2013-06-16 10:33:00,78.0,66.0,-100.00,SSW,195,4.0,-999.0,66,0.00,,,0.02,501.000000,,2013-06-16 15:33:00,
2013-06-16 10:43:00,78.0,66.0,-100.00,SSW,195,4.0,-999.0,66,0.00,,,0.02,501.000000,,2013-06-16 15:43:00,
2013-06-16 10:53:00,78.0,66.0,-100.00,SSW,195,4.0,-999.0,66,0.00,,,0.02,501.000000,,2013-06-16 15:53:00,
2013-06-16 11:00:00,82.0,68.0,-100.00,South,185,3.0,-999.0,63,0.00,,,0.02,668.000000,,2013-06-16 16:00:00,
2013-06-16 11:23:00,82.0,68.0,-100.00,South,185,3.0,-999.0,63,0.00,,,0.02,668.000000,,2013-06-16 16:23:00,
2013-06-16 11:33:00,82.0,68.0,-100.00,South,185,3.0,-999.0,63,0.00,,,0.02,668.000000,,2013-06-16 16:33:00,
2013-06-16 11:43:00,82.0,68.0,-100.00,South,185,3.0,-999.0,63,0.00,,,0.02,668.000000,,2013-06-16 16:43:00,
2013-06-16 11:53:00,82.0,68.0,-100.00,South,185,3.0,-999.0,63,0.00,,,0.02,668.000000,,2013-06-16 16:53:00,
2013-06-16 12:00:00,84.0,68.0,-100.00,South,185,2.0,-999.0,58,0.00,,,0.02,803.000000,,2013-06-16 17:00:00,
2013-06-16 12:22:00,84.0,68.0,-100.00,South,185,2.0,-999.0,58,0.00,,,0.02,803.000000,,2013-06-16 17:22:00,
2013-06-16 12:34:00,84.0,68.0,-100.00,South,185,2.0,-999.0,58,0.00,,,0.02,803.000000,,2013-06-16 17:34:00,
2013-06-16 12:43:00,84.0,68.0,-100.00,South,185,2.0,-999.0,58,0.00,,,0.02,803.000000,,2013-06-16 17:43:00,
2013-06-16 12:53:00,84.0,68.0,-100.00,South,185,2.0,-999.0,58,0.00,,,0.02,803.000000,,2013-06-16 17:53:00,
2013-06-16 13:00:00,87.0,68.0,-100.00,South,174,2.0,-999.0,53,0.00,,,0.02,864.000000,,2013-06-16 18:00:00,
2013-06-16 13:22:00,87.0,68.0,-100.00,South,174,2.0,-999.0,53,0.00,,,0.02,864.000000,,2013-06-16 18:22:00,
2013-06-16 13:33:00,87.0,68.0,-100.00,South,174,2.0,-999.0,53,0.00,,,0.02,864.000000,,2013-06-16 18:33:00,
2013-06-16 13:43:00,87.0,68.0,-100.00,South,174,2.0,-999.0,53,0.00,,,0.02,864.000000,,2013-06-16 18:43:00,
2013-06-16 13:52:00,87.0,68.0,-100.00,South,174,2.0,-999.0,53,0.00,,,0.02,864.000000,,2013-06-16 18:52:00,
2013-06-16 14:00:00,89.0,70.0,-100.00,South,179,2.0,-999.0,54,0.00,,,0.02,782.000000,,2013-06-16 19:00:00,
2013-06-16 14:22:00,89.0,70.0,-100.00,South,179,2.0,-999.0,54,0.00,,,0.02,782.000000,,2013-06-16 19:22:00,
2013-06-16 14:34:00,89.0,70.0,-100.00,South,179,2.0,-999.0,54,0.00,,,0.02,782.000000,,2013-06-16 19:34:00,
2013-06-16 14:43:00,89.0,70.0,-100.00,South,179,2.0,-999.0,54,0.00,,,0.02,782.000000,,2013-06-16 19:43:00,
2013-06-16 14:53:00,89.0,70.0,-100.00,South,179,2.0,-999.0,54,0.00,,,0.02,782.000000,,2013-06-16 19:53:00,
2013-06-16 15:00:00,89.0,68.0,-100.00,SSW,192,1.0,-999.0,50,0.00,,,0.02,439.000000,,2013-06-16 20:00:00,
2013-06-16 15:22:00,89.0,68.0,-100.00,SSW,192,1.0,-999.0,50,0.00,,,0.02,439.000000,,2013-06-16 20:22:00,
2013-06-16 15:33:00,89.0,68.0,-100.00,SSW,192,1.0,-999.0,50,0.00,,,0.02,439.000000,,2013-06-16 20:33:00,
2013-06-16 15:43:00,89.0,68.0,-100.00,SSW,192,1.0,-999.0,50,0.00,,,0.02,439.000000,,2013-06-16 20:43:00,
2013-06-16 15:53:00,89.0,68.0,-100.00,SSW,192,1.0,-999.0,50,0.00,,,0.02,439.000000,,2013-06-16 20:53:00,
2013-06-16 16:00:00,91.0,69.0,-100.00,WNW,301,2.0,-999.0,49,0.00,,,0.01,520.000000,,2013-06-16 21:00:00,
2013-06-16 16:42:00,91.0,69.0,-100.00,WNW,301,2.0,-999.0,49,0.00,,,0.01,520.000000,,2013-06-16 21:42:00,
2013-06-16 16:53:00,91.0,69.0,-100.00,WNW,301,2.0,-999.0,49,0.00,,,0.01,520.000000,,2013-06-16 21:53:00,
2013-06-16 19:00:00,79.0,62.0,-100.00,ENE,76,6.0,-999.0,56,0.00,,,0.00,78.000000,,2013-06-17 00:00:00,
2013-06-16 20:00:00,79.0,63.0,-100.00,SSE,154,2.0,-999.0,58,0.00,,,0.00,67.000000,,2013-06-17 01:00:00,
2013-06-16 20:43:00,79.0,63.0,-100.00,SSE,154,2.0,-999.0,58,0.00,,,0.00,67.000000,,2013-06-17 01:43:00,
2013-06-16 20:53:00,79.0,63.0,-100.00,SSE,154,2.0,-999.0,58,0.00,,,0.00,67.000000,,2013-06-17 01:53:00,
2013-06-16 21:00:00,76.0,65.0,-100.00,SSE,167,2.0,-999.0,69,0.00,,,0.00,15.000000,,2013-06-17 02:00:00,
2013-06-16 21:22:00,76.0,65.0,-100.00,SSE,167,2.0,-999.0,69,0.00,,,0.00,15.000000,,2013-06-17 02:22:00,
2013-06-16 21:34:00,76.0,65.0,-100.00,SSE,167,2.0,-999.0,69,0.00,,,0.00,15.000000,,2013-06-17 02:34:00,
2013-06-16 21:43:00,76.0,65.0,-100.00,SSE,167,2.0,-999.0,69,0.00,,,0.00,15.000000,,2013-06-17 02:43:00,
2013-06-16 21:53:00,76.0,65.0,-100.00,SSE,167,2.0,-999.0,69,0.00,,,0.00,15.000000,,2013-06-17 02:53:00,
2013-06-16 22:00:00,73.0,61.0,-100.00,SSE,160,4.0,-999.0,66,0.00,,,0.00,0.000000,,2013-06-17 03:00:00,
2013-06-16 22:22:00,73.0,61.0,-100.00,SSE,160,4.0,-999.0,66,0.00,,,0.00,0.000000,,2013-06-17 03:22:00,
2013-06-16 22:33:00,73.0,61.0,-100.00,SSE,160,4.0,-999.0,66,0.00,,,0.00,0.000000,,2013-06-17 03:33:00,
2013-06-16 22:44:00,73.0,61.0,-100.00,SSE,160,4.0,-999.0,66,0.00,,,0.00,0.000000,,2013-06-17 03:44:00,
2013-06-16 22:54:00,73.0,61.0,-100.00,SSE,160,4.0,-999.0,66,0.00,,,0.00,0.000000,,2013-06-17 03:54:00,
2013-06-16 23:00:00,72.0,62.0,-100.00,East,79,2.0,-999.0,71,0.00,,,0.00,0.000000,,2013-06-17 04:00:00,
2013-06-16 23:23:00,72.0,62.0,-100.00,East,79,2.0,-999.0,71,0.00,,,0.00,0.000000,,2013-06-17 04:23:00,
2013-06-16 23:34:00,72.0,62.0,-100.00,East,79,2.0,-999.0,71,0.00,,,0.00,0.000000,,2013-06-17 04:34:00,
2013-06-16 23:43:00,72.0,62.0,-100.00,East,79,2.0,-999.0,71,0.00,,,0.00,0.000000,,2013-06-17 04:43:00,
2013-06-16 23:53:00,72.0,62.0,-100.00,East,79,2.0,-999.0,71,0.00,,,0.00,0.000000,,2013-06-17 04:53:00,